Home > Weather > Metairie > Past weeks

Flag for USA Weather for the Past 2 Weeks in Metairie, Louisiana, USA

Now
72 °F

Scattered clouds.


Feels Like: 77 °F
Forecast: 64 / 77 °F
Wind: 7 mph from Northwest

Location: New Orleans International Airport

Current Time: May 6, 2016 at 12:46:13 PM

Latest Report: May 6, 2016 at 11:53 AM


Visibility: 10 mi

Pressure: 30.09 "Hg

Humidity: 43%

Dew Point: 48 °F

Location of MetairieLocation

Historic Weather in Metairie — Graph

°F

Metairie Temperature Yesterday

Maximum temperature yesterday: 80 °F (at 1:53 PM)
Minimum temperature yesterday: 63 °F (at 3:53 AM)
Average temperature yesterday: 72 °F

High & Low Weather Summary for the Past Weeks

 TemperatureHumidityPressure
High85 °F (Apr 26, 1:53 PM)97% (Apr 22, 1:53 AM)30.09 "Hg (Apr 22, 1:53 AM)
Low63 °F (Apr 24, 5:53 AM)32% (May 5, 5:53 PM)29.70 "Hg (Apr 27, 3:53 PM)
Average74 °F71%29.93 "Hg
* Reported Apr 21 11:53 AM — May 6 11:53 AM, Metairie, Weather by CustomWeather, © 2016

Note: Actual official high and low records may vary slightly from our data, if they occured in-between our weather recording intervals... More about our weather records

Advertising

Metairie Weather History for the Previous 24 Hours

Scroll right to see more
 ConditionsComfort  
Time TempWeatherWind HumidityBarometerVisibility
11:53 AM
Fri, May 6
72 °FScattered clouds.7 mph43%30.09 "Hg10 mi
10:53 AM72 °FPassing clouds.7 mph43%30.09 "Hg10 mi
9:53 AM70 °FPassing clouds.13 mph44%30.09 "Hg10 mi
8:53 AM68 °FPassing clouds.14 mph53%30.07 "Hg10 mi
7:53 AM67 °FPassing clouds.13 mph51%30.06 "Hg10 mi
6:53 AM65 °FPassing clouds.9 mph54%30.03 "Hg10 mi
5:53 AM65 °FPassing clouds.9 mph49%30.01 "Hg10 mi
4:53 AM67 °FClear.13 mph42%30.01 "Hg10 mi
3:53 AM67 °FClear.12 mph41%29.99 "Hg10 mi
2:53 AM68 °FClear.14 mph40%29.98 "Hg10 mi
1:53 AM69 °FClear.15 mph45%29.98 "Hg10 mi
12:53 AM69 °FClear.10 mph45%29.99 "Hg10 mi
11:53 PM
Thu, May 5
69 °FClear.12 mph44%29.99 "Hg10 mi
10:53 PM71 °FPassing clouds.14 mph41%29.98 "Hg10 mi
9:53 PM72 °FPassing clouds.20 mph37%29.96 "Hg10 mi
8:53 PM74 °FPassing clouds.10 mph37%29.92 "Hg10 mi
7:53 PM74 °FPassing clouds.10 mph37%29.90 "Hg9 mi
6:53 PM77 °FPassing clouds.14 mph35%29.88 "Hg10 mi
5:53 PM79 °FPassing clouds.15 mph32%29.88 "Hg10 mi
4:53 PM79 °FSunny.13 mph35%29.88 "Hg10 mi
3:53 PM80 °FSunny.12 mph34%29.90 "Hg10 mi
2:53 PM80 °FSunny.13 mph36%29.91 "Hg10 mi
1:53 PM80 °FSunny.8 mph36%29.92 "Hg10 mi
12:53 PM78 °FSunny.12 mph43%29.94 "Hg10 mi
Weather by CustomWeather, © 2016

See weather overviewHow to use our weather pages